Location: Piotrkow Trybunalski
(51.4000°N, 19.6830°E)
Time: 10:42:43
(UTC+01:00)

Transit 4A - All Passes

Search period start: 05 March 2024 00:00
Search period end: 15 March 2024 00:00
Orbit: 870 x 973 km, 66.8° (Epoch: 04 March)

Date Brightness Start Highest point End Pass type
(mag) Time Alt. Az. Time Alt. Az. Time Alt. Az.
05 Mar - 01:00:44 10° WSW 01:06:21 37° NW 01:11:51 10° NNE visible
05 Mar - 02:50:12 10° NW 02:54:25 19° N 02:58:34 10° NE visible
05 Mar - 04:38:31 10° NNW 04:42:58 21° NNE 04:47:22 10° ENE visible
05 Mar - 06:25:00 10° NNW 06:30:43 49° NE 06:36:21 10° ESE daylight
05 Mar - 08:11:33 10° NW 08:17:01 42° WSW 08:22:25 10° S daylight
05 Mar - 21:38:45 10° SSE 21:43:03 20° ESE 21:47:17 10° ENE night (unlit)
05 Mar - 23:22:29 10° SW 23:28:39 88° SE 23:34:41 10° NE visible
06 Mar - 01:10:23 10° W 01:15:42 30° NNW 01:20:55 10° NNE visible
06 Mar - 02:59:56 10° NW 03:03:58 18° N 03:07:59 10° NE visible
06 Mar - 04:47:43 10° NNW 04:52:28 24° NNE 04:57:08 10° ENE visible
06 Mar - 06:34:04 10° NW 06:39:56 64° NE 06:45:42 10° SE daylight
06 Mar - 08:20:53 10° NW 08:25:54 30° WSW 08:30:50 10° S daylight
06 Mar - 21:46:45 10° SSE 21:51:51 28° ESE 21:56:52 10° NE night (unlit)
06 Mar - 23:31:39 10° SW 23:37:46 71° NW 23:43:45 10° NE visible
07 Mar - 01:20:08 10° W 01:25:07 26° NNW 01:30:01 10° NNE visible
07 Mar - 03:09:32 10° NW 03:13:33 18° N 03:17:30 10° NE visible
07 Mar - 04:56:52 10° NNW 05:01:54 28° NNE 05:06:51 10° E visible
07 Mar - 06:43:09 10° NW 06:49:03 84° NE 06:54:53 10° SE daylight
07 Mar - 08:30:26 10° WNW 08:34:42 21° WSW 08:38:56 10° SSW daylight
07 Mar - 21:55:06 10° S 22:00:43 39° ESE 22:06:14 10° NE visible
07 Mar - 23:40:58 10° WSW 23:46:57 55° NW 23:52:49 10° NNE visible
08 Mar - 01:29:56 10° WNW 01:34:35 22° NNW 01:39:10 10° NNE visible
08 Mar - 03:19:02 10° NW 03:23:07 19° N 03:27:08 10° NE visible
08 Mar - 05:05:57 10° NNW 05:11:17 34° NNE 05:16:31 10° E visible
08 Mar - 06:52:16 10° NW 06:58:08 73° WSW 07:03:54 10° SSE daylight
08 Mar - 08:40:22 10° WNW 08:43:26 15° WSW 08:46:30 10° SW daylight
08 Mar - 20:23:53 10° ESE 20:24:36 10° E 20:25:19 10° E night (unlit)
08 Mar - 22:03:43 10° SSW 22:09:40 53° ESE 22:15:29 10° NE visible
08 Mar - 23:50:25 10° WSW 23:56:12 43° NW 00:01:51 10° NNE visible
09 Mar - 01:39:45 10° WNW 01:44:06 20° NNW 01:48:24 10° NNE visible
09 Mar - 03:28:24 10° NNW 03:32:40 20° NNE 03:36:52 10° ENE visible
09 Mar - 05:15:01 10° NNW 05:20:36 42° NE 05:26:05 10° ESE visible
09 Mar - 07:01:26 10° NW 07:07:07 53° WSW 07:12:44 10° SSE daylight
09 Mar - 20:29:51 10° SE 20:33:17 16° ESE 20:36:41 10° ENE night (unlit)
09 Mar - 22:12:33 10° SSW 22:18:40 73° ESE 22:24:38 10° NE visible
10 Mar - 00:00:00 10° W 00:05:30 35° NW 00:10:55 10° NNE visible
10 Mar - 01:49:31 10° NW 01:53:38 19° N 01:57:43 10° NE visible
10 Mar - 03:37:39 10° NNW 03:42:11 22° NNE 03:46:39 10° ENE visible
10 Mar - 05:24:05 10° NNW 05:29:51 53° NE 05:35:32 10° ESE visible
10 Mar - 07:10:42 10° NW 07:16:02 38° WSW 07:21:20 10° S daylight
10 Mar - 20:37:28 10° SSE 20:42:03 22° ESE 20:46:33 10° ENE night (unlit)
10 Mar - 22:21:36 10° SW 22:27:45 85° NW 22:33:44 10° NE visible
11 Mar - 00:09:41 10° W 00:14:53 29° NNW 00:20:00 10° NNE visible
11 Mar - 01:59:12 10° NW 02:03:12 18° N 02:07:10 10° NE visible
11 Mar - 03:46:50 10° NNW 03:51:40 25° NNE 03:56:24 10° E visible
11 Mar - 05:33:09 10° NW 05:39:01 70° NE 05:44:49 10° SE daylight
11 Mar - 07:20:05 10° NW 07:24:53 27° WSW 07:29:40 10° SSW daylight
11 Mar - 20:45:36 10° S 20:50:52 31° ESE 20:56:02 10° NE visible
11 Mar - 22:30:48 10° SW 22:36:52 65° NW 22:42:49 10° NE visible
12 Mar - 00:19:27 10° WNW 00:24:19 25° NNW 00:29:06 10° NNE visible
12 Mar - 02:08:47 10° NW 02:12:47 18° N 02:16:43 10° NE visible
12 Mar - 03:55:57 10° NNW 04:01:04 29° NNE 04:06:08 10° E visible
12 Mar - 05:42:14 10° NW 05:48:08 89° SW 05:53:57 10° SE daylight
12 Mar - 07:29:43 10° WNW 07:33:40 19° WSW 07:37:37 10° SSW daylight
12 Mar - 20:54:02 10° S 20:59:46 43° ESE 21:05:22 10° NE visible
12 Mar - 22:40:09 10° WSW 22:46:04 50° NW 22:51:52 10° NNE visible
13 Mar - 00:29:15 10° WNW 00:33:47 22° NNW 00:38:16 10° NNE visible
13 Mar - 02:18:13 10° NW 02:22:21 19° N 02:26:25 10° NE visible
13 Mar - 04:05:01 10° NNW 04:10:26 36° NE 04:15:45 10° ESE visible
13 Mar - 05:51:22 10° NW 05:57:11 66° WSW 06:02:55 10° SSE daylight
13 Mar - 07:39:53 10° WNW 07:42:23 13° WSW 07:44:53 10° SW daylight
13 Mar - 19:21:31 10° ESE 19:23:33 12° E 19:25:34 10° E night (unlit)
13 Mar - 21:02:43 10° SSW 21:08:43 59° ESE 21:14:34 10° NE visible
13 Mar - 22:49:39 10° WSW 22:55:20 40° NW 23:00:55 10° NNE visible
14 Mar - 00:39:03 10° WNW 00:43:19 20° NNW 00:47:31 10° NNE visible
14 Mar - 02:27:33 10° NNW 02:31:53 20° NNE 02:36:09 10° ENE visible
14 Mar - 04:14:06 10° NNW 04:19:44 45° NE 04:25:17 10° ESE visible
14 Mar - 06:00:34 10° NW 06:06:08 48° WSW 06:11:40 10° S daylight
14 Mar - 19:28:25 10° SE 19:32:15 17° ESE 19:36:03 10° ENE night (unlit)
14 Mar - 21:11:38 10° SSW 21:17:45 80° SE 21:23:43 10° NE visible
14 Mar - 22:59:16 10° W 23:04:40 32° NNW 23:09:59 10° NNE visible
